Time,TemperatureF,DewpointF,PressureIn,WindDirection,WindDirectionDegrees,WindSpeedMPH,WindSpeedGustMPH,Humidity,HourlyPrecipIn,Conditions,Clouds,dailyrainin,SoftwareType,DateUTC
2013-10-14 00:00:00,67.3,64.0,30.12,SE,131,5.0,7.0,89,0.00,,---,0.00,VWS V14.01,2013-10-14 04:00:00,
2013-10-14 00:01:00,67.3,64.0,30.12,SE,140,3.0,9.0,89,0.00,,---,0.00,VWS V14.01,2013-10-14 04:01:00,
2013-10-14 00:02:00,67.2,63.8,30.12,SE,138,3.0,9.0,89,0.00,,---,0.00,VWS V14.01,2013-10-14 04:02:00,
2013-10-14 00:07:00,67.2,63.8,30.12,SSW,204,5.0,12.0,89,0.00,,---,0.00,VWS V14.01,2013-10-14 04:07:00,
2013-10-14 00:12:00,67.2,64.2,30.12,SE,145,0.0,12.0,90,0.00,,---,0.00,VWS V14.01,2013-10-14 04:12:00,
2013-10-14 00:17:00,67.2,64.2,30.12,ESE,117,4.0,12.0,90,0.00,,---,0.00,VWS V14.01,2013-10-14 04:17:00,
2013-10-14 00:22:00,67.2,64.2,30.12,ESE,112,0.0,12.0,90,0.00,,---,0.00,VWS V14.01,2013-10-14 04:22:00,
2013-10-14 00:27:00,67.2,64.2,30.12,South,174,6.0,12.0,90,0.00,,---,0.00,VWS V14.01,2013-10-14 04:27:00,
2013-10-14 00:30:00,67.2,64.2,30.12,SSE,149,3.0,12.0,90,0.00,,---,0.00,VWS V14.01,2013-10-14 04:30:00,
2013-10-14 00:32:00,67.2,64.2,30.12,SE,146,0.0,6.0,90,0.00,,---,0.00,VWS V14.01,2013-10-14 04:32:00,
2013-10-14 00:37:00,67.2,64.2,30.12,SE,124,6.0,11.0,90,0.00,,---,0.00,VWS V14.01,2013-10-14 04:37:00,
2013-10-14 00:42:00,67.2,64.2,30.12,SSE,162,4.0,11.0,90,0.00,,---,0.00,VWS V14.01,2013-10-14 04:42:00,
2013-10-14 00:47:00,67.2,64.2,30.12,SE,136,8.0,11.0,90,0.00,,---,0.00,VWS V14.01,2013-10-14 04:47:00,
2013-10-14 00:52:00,67.2,64.2,30.12,SSE,151,2.0,11.0,90,0.00,,---,0.00,VWS V14.01,2013-10-14 04:52:00,
2013-10-14 00:57:00,67.1,64.1,30.12,SSE,156,0.0,11.0,90,0.00,,---,0.00,VWS V14.01,2013-10-14 04:57:00,
2013-10-14 01:00:00,67.1,64.1,30.12,SE,128,0.0,11.0,90,0.00,,---,0.00,VWS V14.01,2013-10-14 05:00:00,
2013-10-14 01:02:00,67.1,64.1,30.11,SSE,155,3.0,7.0,90,0.00,,---,0.00,VWS V14.01,2013-10-14 05:02:00,
2013-10-14 01:07:00,67.0,64.0,30.11,SE,133,0.0,10.0,90,0.00,,---,0.00,VWS V14.01,2013-10-14 05:07:00,
2013-10-14 01:12:00,67.0,64.0,30.11,SE,138,0.0,10.0,90,0.00,,---,0.00,VWS V14.01,2013-10-14 05:12:00,
2013-10-14 01:17:00,67.0,64.0,30.11,SE,128,0.0,10.0,90,0.00,,---,0.00,VWS V14.01,2013-10-14 05:17:00,
2013-10-14 01:22:00,67.0,64.0,30.11,SSE,148,3.0,10.0,90,0.00,,---,0.00,VWS V14.01,2013-10-14 05:22:00,
2013-10-14 01:27:00,67.0,64.0,30.11,SE,142,2.0,10.0,90,0.00,,---,0.00,VWS V14.01,2013-10-14 05:27:00,
2013-10-14 01:30:00,67.0,64.0,30.11,SSE,152,6.0,10.0,90,0.00,,---,0.00,VWS V14.01,2013-10-14 05:30:00,
2013-10-14 01:32:00,67.0,64.0,30.11,SSE,159,0.0,10.0,90,0.00,,---,0.00,VWS V14.01,2013-10-14 05:32:00,
2013-10-14 01:37:00,67.0,64.0,30.11,SSE,154,1.0,10.0,90,0.00,,---,0.00,VWS V14.01,2013-10-14 05:37:00,
2013-10-14 01:42:00,67.0,64.0,30.11,SSE,163,0.0,10.0,90,0.00,,---,0.00,VWS V14.01,2013-10-14 05:42:00,
2013-10-14 01:47:00,67.0,64.0,30.11,SE,136,3.0,10.0,90,0.00,,---,0.00,VWS V14.01,2013-10-14 05:47:00,
2013-10-14 01:52:00,67.0,64.0,30.10,SSE,163,0.0,10.0,90,0.00,,---,0.00,VWS V14.01,2013-10-14 05:52:00,
2013-10-14 01:57:00,67.0,64.0,30.10,SE,143,4.0,10.0,90,0.00,,---,0.00,VWS V14.01,2013-10-14 05:57:00,
2013-10-14 02:00:00,67.0,64.0,30.10,SSE,168,0.0,10.0,90,0.00,,---,0.00,VWS V14.01,2013-10-14 06:00:00,
2013-10-14 02:02:00,67.0,64.0,30.10,SE,142,4.0,4.0,90,0.00,,---,0.00,VWS V14.01,2013-10-14 06:02:00,
2013-10-14 02:07:00,67.0,64.0,30.10,SE,126,0.0,8.0,90,0.00,,---,0.00,VWS V14.01,2013-10-14 06:07:00,
2013-10-14 02:12:00,67.0,64.0,30.10,SSE,163,7.0,8.0,90,0.00,,---,0.00,VWS V14.01,2013-10-14 06:12:00,
2013-10-14 02:17:00,67.1,64.1,30.10,SE,136,3.0,9.0,90,0.00,,---,0.00,VWS V14.01,2013-10-14 06:17:00,
2013-10-14 02:22:00,67.1,64.1,30.10,SE,128,0.0,9.0,90,0.00,,---,0.00,VWS V14.01,2013-10-14 06:22:00,
2013-10-14 02:27:00,67.1,64.1,30.09,SE,136,5.0,9.0,90,0.00,,---,0.00,VWS V14.01,2013-10-14 06:27:00,
2013-10-14 02:30:00,67.1,64.1,30.09,SSE,165,3.0,9.0,90,0.00,,---,0.00,VWS V14.01,2013-10-14 06:30:00,
2013-10-14 02:32:00,67.0,64.0,30.09,SE,142,0.0,5.0,90,0.00,,---,0.00,VWS V14.01,2013-10-14 06:32:00,
2013-10-14 02:37:00,67.0,64.0,30.09,SE,146,1.0,9.0,90,0.00,,---,0.00,VWS V14.01,2013-10-14 06:37:00,
2013-10-14 02:42:00,67.0,64.0,30.09,SSE,164,6.0,9.0,90,0.00,,---,0.00,VWS V14.01,2013-10-14 06:42:00,
2013-10-14 02:47:00,67.0,64.0,30.09,SE,136,0.0,9.0,90,0.00,,---,0.00,VWS V14.01,2013-10-14 06:47:00,
2013-10-14 02:52:00,67.0,64.0,30.09,South,171,4.0,11.0,90,0.00,,---,0.00,VWS V14.01,2013-10-14 06:52:00,
2013-10-14 02:57:00,67.0,64.0,30.09,South,185,5.0,11.0,90,0.00,,---,0.00,VWS V14.01,2013-10-14 06:57:00,
2013-10-14 03:00:00,67.0,64.0,30.09,SSE,161,5.0,11.0,90,0.00,,---,0.00,VWS V14.01,2013-10-14 07:00:00,
2013-10-14 03:03:00,67.0,64.0,30.09,SE,141,2.0,9.0,90,0.00,,---,0.00,VWS V14.01,2013-10-14 07:03:00,
2013-10-14 03:08:00,67.0,64.0,30.09,South,170,8.0,12.0,90,0.00,,---,0.00,VWS V14.01,2013-10-14 07:08:00,
2013-10-14 03:13:00,67.0,64.0,30.09,SSE,150,5.0,12.0,90,0.00,,---,0.00,VWS V14.01,2013-10-14 07:13:00,
2013-10-14 03:18:00,67.0,64.0,30.09,SE,138,0.0,12.0,90,0.00,,---,0.00,VWS V14.01,2013-10-14 07:18:00,
2013-10-14 03:23:00,66.9,63.9,30.09,SE,144,3.0,12.0,90,0.00,,---,0.00,VWS V14.01,2013-10-14 07:23:00,
2013-10-14 03:28:00,66.9,63.9,30.08,SSE,153,0.0,12.0,90,0.00,,---,0.00,VWS V14.01,2013-10-14 07:28:00,
2013-10-14 03:30:00,66.9,63.9,30.08,SSE,147,4.0,12.0,90,0.00,,---,0.00,VWS V14.01,2013-10-14 07:30:00,
2013-10-14 03:33:00,66.8,63.8,30.08,SSE,159,5.0,10.0,90,0.00,,---,0.00,VWS V14.01,2013-10-14 07:33:00,
2013-10-14 03:38:00,66.8,63.8,30.08,SE,138,0.0,10.0,90,0.00,,---,0.00,VWS V14.01,2013-10-14 07:38:00,
2013-10-14 03:43:00,66.8,63.8,30.08,ESE,121,5.0,10.0,90,0.00,,---,0.00,VWS V14.01,2013-10-14 07:43:00,
2013-10-14 03:48:00,66.7,63.7,30.09,SSE,163,8.0,10.0,90,0.00,,---,0.00,VWS V14.01,2013-10-14 07:48:00,
2013-10-14 03:53:00,66.7,63.7,30.09,South,172,4.0,10.0,90,0.00,,---,0.00,VWS V14.01,2013-10-14 07:53:00,
2013-10-14 03:58:00,66.7,64.0,30.09,SE,132,1.0,10.0,91,0.00,,---,0.00,VWS V14.01,2013-10-14 07:58:00,
2013-10-14 04:00:00,66.7,64.0,30.09,SE,140,5.0,10.0,91,0.00,,---,0.00,VWS V14.01,2013-10-14 08:00:00,
2013-10-14 04:03:00,66.6,63.9,30.09,SE,137,0.0,7.0,91,0.00,,---,0.00,VWS V14.01,2013-10-14 08:03:00,
2013-10-14 04:08:00,66.6,63.9,30.09,SE,146,0.0,12.0,91,0.00,,---,0.00,VWS V14.01,2013-10-14 08:08:00,
2013-10-14 04:13:00,66.6,63.9,30.09,SE,133,6.0,12.0,91,0.00,,---,0.00,VWS V14.01,2013-10-14 08:13:00,
2013-10-14 04:18:00,66.5,63.8,30.09,ESE,122,0.0,12.0,91,0.00,,---,0.00,VWS V14.01,2013-10-14 08:18:00,
2013-10-14 04:23:00,66.5,63.8,30.09,South,178,2.0,12.0,91,0.00,,---,0.00,VWS V14.01,2013-10-14 08:23:00,
2013-10-14 04:28:00,66.5,63.8,30.09,SE,146,5.0,12.0,91,0.00,,---,0.00,VWS V14.01,2013-10-14 08:28:00,
2013-10-14 04:30:00,66.5,63.8,30.09,ESE,117,0.0,12.0,91,0.00,,---,0.00,VWS V14.01,2013-10-14 08:30:00,
2013-10-14 04:33:00,66.4,64.0,30.09,SSE,161,0.0,6.0,92,0.00,,---,0.00,VWS V14.01,2013-10-14 08:33:00,
2013-10-14 04:38:00,66.3,63.9,30.09,SE,136,0.0,7.0,92,0.00,,---,0.00,VWS V14.01,2013-10-14 08:38:00,
2013-10-14 04:43:00,66.3,63.9,30.09,ESE,103,0.0,10.0,92,0.00,,---,0.00,VWS V14.01,2013-10-14 08:43:00,
2013-10-14 04:48:00,66.2,63.8,30.09,SSE,155,5.0,10.0,92,0.00,,---,0.00,VWS V14.01,2013-10-14 08:48:00,
2013-10-14 04:53:00,66.1,63.7,30.09,SE,136,0.0,10.0,92,0.00,,---,0.00,VWS V14.01,2013-10-14 08:53:00,
2013-10-14 04:58:00,66.1,63.7,30.10,ESE,120,0.0,10.0,92,0.00,,---,0.00,VWS V14.01,2013-10-14 08:58:00,
2013-10-14 05:00:00,66.1,63.7,30.10,SSE,161,7.0,10.0,92,0.00,,---,0.00,VWS V14.01,2013-10-14 09:00:00,
2013-10-14 05:03:00,66.1,63.7,30.10,SE,134,0.0,8.0,92,0.00,,---,0.00,VWS V14.01,2013-10-14 09:03:00,
2013-10-14 05:08:00,66.1,63.7,30.10,SE,144,0.0,8.0,92,0.00,,---,0.00,VWS V14.01,2013-10-14 09:08:00,
2013-10-14 05:13:00,66.1,63.7,30.10,SE,129,0.0,8.0,92,0.00,,---,0.00,VWS V14.01,2013-10-14 09:13:00,
2013-10-14 05:18:00,66.1,63.7,30.10,SSE,156,3.0,8.0,92,0.00,,---,0.00,VWS V14.01,2013-10-14 09:18:00,
2013-10-14 05:23:00,66.1,63.7,30.10,SSE,167,4.0,8.0,92,0.00,,---,0.00,VWS V14.01,2013-10-14 09:23:00,
2013-10-14 05:28:00,66.1,64.0,30.10,SE,143,0.0,8.0,93,0.00,,---,0.00,VWS V14.01,2013-10-14 09:28:00,
2013-10-14 05:30:00,66.0,63.9,30.10,SSE,153,2.0,8.0,93,0.00,,---,0.00,VWS V14.01,2013-10-14 09:30:00,
2013-10-14 05:33:00,66.0,63.9,30.10,SE,138,0.0,7.0,93,0.00,,---,0.00,VWS V14.01,2013-10-14 09:33:00,
2013-10-14 05:39:00,65.9,63.8,30.10,SSE,156,1.0,8.0,93,0.00,,---,0.00,VWS V14.01,2013-10-14 09:39:00,
2013-10-14 05:44:00,65.8,63.7,30.10,SE,136,0.0,8.0,93,0.00,,---,0.00,VWS V14.01,2013-10-14 09:44:00,
2013-10-14 05:49:00,65.8,63.7,30.10,SE,130,6.0,8.0,93,0.00,,---,0.00,VWS V14.01,2013-10-14 09:49:00,
2013-10-14 05:54:00,65.7,63.6,30.10,SE,136,3.0,8.0,93,0.00,,---,0.00,VWS V14.01,2013-10-14 09:54:00,
2013-10-14 05:59:00,65.7,63.6,30.10,SSE,161,0.0,12.0,93,0.00,,---,0.00,VWS V14.01,2013-10-14 09:59:00,
2013-10-14 06:00:00,65.7,63.6,30.10,SSE,161,0.0,12.0,93,0.00,,---,0.00,VWS V14.01,2013-10-14 10:00:00,
2013-10-14 06:04:00,65.7,63.9,30.10,SSE,151,0.0,7.0,94,0.00,,---,0.00,VWS V14.01,2013-10-14 10:04:00,
2013-10-14 06:09:00,65.7,63.9,30.10,SSE,161,3.0,7.0,94,0.00,,---,0.00,VWS V14.01,2013-10-14 10:09:00,
2013-10-14 06:14:00,65.6,63.8,30.10,South,170,2.0,9.0,94,0.00,,---,0.00,VWS V14.01,2013-10-14 10:14:00,
2013-10-14 06:19:00,65.6,63.8,30.10,SSE,156,3.0,11.0,94,0.00,,---,0.00,VWS V14.01,2013-10-14 10:19:00,
2013-10-14 06:24:00,65.7,63.9,30.10,SSE,148,4.0,11.0,94,0.00,,---,0.00,VWS V14.01,2013-10-14 10:24:00,
2013-10-14 06:29:00,65.7,63.9,30.11,SSW,194,7.0,7.0,94,0.00,,---,0.00,VWS V14.01,2013-10-14 10:29:00,
2013-10-14 06:30:00,65.7,63.9,30.10,South,181,6.0,11.0,94,0.00,,---,0.00,VWS V14.01,2013-10-14 10:30:00,
2013-10-14 06:34:00,65.7,63.9,30.10,ESE,119,0.0,7.0,94,0.00,,---,0.00,VWS V14.01,2013-10-14 10:34:00,
2013-10-14 06:39:00,65.7,63.9,30.10,South,176,0.0,7.0,94,0.00,,---,0.00,VWS V14.01,2013-10-14 10:39:00,
2013-10-14 06:44:00,65.8,64.0,30.10,SSW,213,5.0,8.0,94,0.00,,---,0.00,VWS V14.01,2013-10-14 10:44:00,
2013-10-14 06:49:00,65.8,64.0,30.10,SSE,148,3.0,8.0,94,0.00,,---,0.00,VWS V14.01,2013-10-14 10:49:00,
2013-10-14 06:54:00,65.9,64.1,30.10,SSE,162,4.0,9.0,94,0.00,,---,0.00,VWS V14.01,2013-10-14 10:54:00,
2013-10-14 06:59:00,65.9,64.1,30.10,SSE,165,1.0,2.0,94,0.00,,---,0.00,VWS V14.01,2013-10-14 10:59:00,
2013-10-14 07:00:00,65.9,64.1,30.10,SE,145,0.0,9.0,94,0.00,,---,0.00,VWS V14.01,2013-10-14 11:00:00,
2013-10-14 07:04:00,66.0,64.2,30.10,South,175,0.0,9.0,94,0.00,,---,0.00,VWS V14.01,2013-10-14 11:04:00,
2013-10-14 07:09:00,66.0,64.2,30.10,SSE,159,0.0,9.0,94,0.00,,---,0.00,VWS V14.01,2013-10-14 11:09:00,
2013-10-14 07:14:00,66.0,64.2,30.10,South,169,0.0,9.0,94,0.00,,---,0.00,VWS V14.01,2013-10-14 11:14:00,
2013-10-14 07:19:00,66.0,63.9,30.11,South,169,6.0,9.0,93,0.00,,---,0.00,VWS V14.01,2013-10-14 11:19:00,
2013-10-14 07:24:00,66.1,64.0,30.10,SSE,153,4.0,9.0,93,0.00,,---,0.00,VWS V14.01,2013-10-14 11:24:00,
2013-10-14 07:29:00,66.2,64.1,30.10,SSE,158,8.0,8.0,93,0.00,,---,0.00,VWS V14.01,2013-10-14 11:29:00,
2013-10-14 07:30:00,66.1,64.0,30.10,SE,146,4.0,9.0,93,0.00,,---,0.00,VWS V14.01,2013-10-14 11:30:00,
2013-10-14 07:34:00,66.2,64.1,30.11,South,175,0.0,8.0,93,0.00,,---,0.00,VWS V14.01,2013-10-14 11:34:00,
2013-10-14 07:39:00,66.3,64.2,30.11,SE,128,0.0,8.0,93,0.00,,---,0.00,VWS V14.01,2013-10-14 11:39:00,
2013-10-14 07:44:00,66.3,64.2,30.11,SSE,156,0.0,9.0,93,0.00,,---,0.00,VWS V14.01,2013-10-14 11:44:00,
2013-10-14 07:49:00,66.4,64.3,30.11,South,174,3.0,9.0,93,0.00,,---,0.00,VWS V14.01,2013-10-14 11:49:00,
2013-10-14 07:54:00,66.5,64.4,30.11,SSE,165,0.0,9.0,93,0.00,,---,0.00,VWS V14.01,2013-10-14 11:54:00,
2013-10-14 07:59:00,66.5,64.4,30.11,SE,140,0.0,0.0,93,0.00,,---,0.00,VWS V14.01,2013-10-14 11:59:00,
2013-10-14 08:00:00,66.5,64.4,30.11,SSE,155,0.0,9.0,93,0.00,,---,0.00,VWS V14.01,2013-10-14 12:00:00,
2013-10-14 08:04:00,66.5,64.4,30.12,SE,140,7.0,9.0,93,0.00,,---,0.00,VWS V14.01,2013-10-14 12:04:00,
2013-10-14 08:09:00,66.6,64.2,30.12,South,169,3.0,9.0,92,0.00,,---,0.00,VWS V14.01,2013-10-14 12:09:00,
2013-10-14 08:14:00,66.7,64.3,30.12,SSE,157,6.0,9.0,92,0.00,,---,0.00,VWS V14.01,2013-10-14 12:14:00,
2013-10-14 08:19:00,66.7,64.3,30.12,SSE,165,3.0,9.0,92,0.00,,---,0.00,VWS V14.01,2013-10-14 12:19:00,
2013-10-14 08:24:00,66.8,64.4,30.12,SSE,157,3.0,9.0,92,0.00,,---,0.00,VWS V14.01,2013-10-14 12:24:00,
2013-10-14 08:29:00,66.9,64.5,30.12,SE,143,0.0,2.0,92,0.00,,---,0.00,VWS V14.01,2013-10-14 12:29:00,
2013-10-14 08:30:00,66.9,64.5,30.12,SE,136,1.0,9.0,92,0.00,,---,0.00,VWS V14.01,2013-10-14 12:30:00,
2013-10-14 08:34:00,67.0,64.6,30.13,South,176,0.0,5.0,92,0.00,,---,0.00,VWS V14.01,2013-10-14 12:34:00,
2013-10-14 08:39:00,67.0,64.6,30.13,SE,141,0.0,5.0,92,0.00,,---,0.00,VWS V14.01,2013-10-14 12:39:00,
2013-10-14 08:44:00,67.1,64.7,30.13,SE,134,0.0,7.0,92,0.00,,---,0.00,VWS V14.01,2013-10-14 12:44:00,
2013-10-14 08:49:00,67.2,64.8,30.13,SSE,154,0.0,7.0,92,0.00,,---,0.00,VWS V14.01,2013-10-14 12:49:00,
2013-10-14 08:54:00,67.3,64.6,30.13,SSE,168,7.0,10.0,91,0.00,,---,0.00,VWS V14.01,2013-10-14 12:54:00,
2013-10-14 08:59:00,67.4,64.7,30.13,South,186,5.0,8.0,91,0.00,,---,0.00,VWS V14.01,2013-10-14 12:59:00,
2013-10-14 09:00:00,67.4,64.7,30.13,SSE,161,3.0,13.0,91,0.00,,---,0.00,VWS V14.01,2013-10-14 13:00:00,
2013-10-14 09:04:00,67.6,64.9,30.13,SSE,150,6.0,12.0,91,0.00,,---,0.00,VWS V14.01,2013-10-14 13:04:00,
2013-10-14 09:10:00,67.7,65.0,30.14,SE,134,3.0,14.0,91,0.00,,---,0.00,VWS V14.01,2013-10-14 13:10:00,
2013-10-14 09:15:00,67.8,64.8,30.14,SE,146,4.0,14.0,90,0.00,,---,0.00,VWS V14.01,2013-10-14 13:15:00,
2013-10-14 09:20:00,67.9,64.9,30.14,SSE,149,4.0,14.0,90,0.00,,---,0.00,VWS V14.01,2013-10-14 13:20:00,
2013-10-14 09:25:00,68.0,65.0,30.14,South,191,4.0,14.0,90,0.00,,---,0.00,VWS V14.01,2013-10-14 13:25:00,
2013-10-14 09:30:00,68.0,65.0,30.13,SE,125,3.0,8.0,90,0.00,,---,0.00,VWS V14.01,2013-10-14 13:30:00,
2013-10-14 09:35:00,68.1,65.1,30.13,SSE,154,7.0,12.0,90,0.00,,---,0.00,VWS V14.01,2013-10-14 13:35:00,
2013-10-14 09:40:00,68.1,64.7,30.13,South,191,7.0,12.0,89,0.00,,---,0.00,VWS V14.01,2013-10-14 13:40:00,
2013-10-14 09:45:00,68.2,64.8,30.14,SSE,163,4.0,13.0,89,0.00,,---,0.00,VWS V14.01,2013-10-14 13:45:00,
2013-10-14 09:50:00,68.3,64.9,30.14,SSW,194,5.0,13.0,89,0.00,,---,0.00,VWS V14.01,2013-10-14 13:50:00,
2013-10-14 09:55:00,68.3,64.9,30.14,ESE,103,5.0,13.0,89,0.00,,---,0.00,VWS V14.01,2013-10-14 13:55:00,
2013-10-14 10:00:00,68.4,65.0,30.14,SSW,192,3.0,4.0,89,0.00,,---,0.00,VWS V14.01,2013-10-14 14:00:00,
2013-10-14 10:05:00,68.5,65.1,30.14,SSE,168,4.0,15.0,89,0.00,,---,0.00,VWS V14.01,2013-10-14 14:05:00,
2013-10-14 10:10:00,68.5,64.8,30.14,SSE,159,3.0,15.0,88,0.00,,---,0.00,VWS V14.01,2013-10-14 14:10:00,
2013-10-14 10:15:00,68.6,64.9,30.14,SSE,157,4.0,15.0,88,0.00,,---,0.00,VWS V14.01,2013-10-14 14:15:00,
2013-10-14 10:20:00,68.6,64.9,30.14,SSE,167,3.0,15.0,88,0.00,,---,0.00,VWS V14.01,2013-10-14 14:20:00,
2013-10-14 10:25:00,68.7,65.0,30.14,South,178,3.0,15.0,88,0.00,,---,0.00,VWS V14.01,2013-10-14 14:25:00,
2013-10-14 10:30:00,68.7,65.0,30.14,SSE,158,0.0,4.0,88,0.00,,---,0.00,VWS V14.01,2013-10-14 14:30:00,
2013-10-14 10:35:00,68.7,65.0,30.14,SSE,158,0.0,7.0,88,0.00,,---,0.00,VWS V14.01,2013-10-14 14:35:00,
2013-10-14 10:40:00,68.7,65.0,30.14,SE,130,6.0,7.0,88,0.00,,---,0.00,VWS V14.01,2013-10-14 14:40:00,
2013-10-14 10:45:00,68.7,65.0,30.14,SSE,148,0.0,10.0,88,0.00,,---,0.00,VWS V14.01,2013-10-14 14:45:00,
2013-10-14 10:50:00,68.7,65.0,30.14,SSE,150,1.0,10.0,88,0.00,,---,0.00,VWS V14.01,2013-10-14 14:50:00,
2013-10-14 10:55:00,68.8,65.1,30.14,SSE,152,2.0,10.0,88,0.00,,---,0.00,VWS V14.01,2013-10-14 14:55:00,
2013-10-14 11:00:00,68.7,65.0,30.14,SSE,154,0.0,6.0,88,0.00,,---,0.00,VWS V14.01,2013-10-14 15:00:00,
2013-10-14 11:05:00,68.7,65.0,30.14,SSE,165,6.0,11.0,88,0.00,,---,0.00,VWS V14.01,2013-10-14 15:05:00,
2013-10-14 11:10:00,68.7,65.0,30.14,SSE,165,5.0,11.0,88,0.00,,---,0.00,VWS V14.01,2013-10-14 15:10:00,
2013-10-14 11:15:00,68.8,65.1,30.14,SE,145,4.0,11.0,88,0.00,,---,0.00,VWS V14.01,2013-10-14 15:15:00,
2013-10-14 11:20:00,68.9,65.2,30.14,SSE,151,0.0,11.0,88,0.00,,---,0.00,VWS V14.01,2013-10-14 15:20:00,
2013-10-14 11:25:00,69.1,65.1,30.14,SSE,150,2.0,11.0,87,0.00,,---,0.00,VWS V14.01,2013-10-14 15:25:00,
2013-10-14 11:30:00,69.2,65.2,30.14,South,182,0.0,5.0,87,0.00,,---,0.00,VWS V14.01,2013-10-14 15:30:00,
2013-10-14 11:35:00,69.2,65.2,30.14,SSE,150,0.0,10.0,87,0.00,,---,0.00,VWS V14.01,2013-10-14 15:35:00,
2013-10-14 11:40:00,69.3,65.3,30.14,South,179,0.0,10.0,87,0.00,,---,0.00,VWS V14.01,2013-10-14 15:40:00,
2013-10-14 11:45:00,69.4,65.4,30.14,SSE,151,0.0,10.0,87,0.00,,---,0.00,VWS V14.01,2013-10-14 15:45:00,
2013-10-14 11:50:00,69.5,65.1,30.14,SSE,158,0.0,10.0,86,0.00,,---,0.00,VWS V14.01,2013-10-14 15:50:00,
2013-10-14 11:55:00,69.6,65.2,30.14,SE,146,5.0,10.0,86,0.00,,---,0.00,VWS V14.01,2013-10-14 15:55:00,
2013-10-14 12:00:00,69.7,65.3,30.13,SSE,161,7.0,7.0,86,0.00,,---,0.00,VWS V14.01,2013-10-14 16:00:00,
2013-10-14 12:05:00,69.8,65.1,30.13,South,186,6.0,10.0,85,0.00,,---,0.00,VWS V14.01,2013-10-14 16:05:00,
2013-10-14 12:10:00,70.0,65.3,30.13,South,186,4.0,11.0,85,0.00,,---,0.00,VWS V14.01,2013-10-14 16:10:00,
2013-10-14 12:15:00,70.1,65.4,30.12,SSE,156,6.0,15.0,85,0.00,,---,0.00,VWS V14.01,2013-10-14 16:15:00,
2013-10-14 12:20:00,70.4,65.3,30.12,South,169,6.0,15.0,84,0.00,,---,0.00,VWS V14.01,2013-10-14 16:20:00,
2013-10-14 12:26:00,70.7,65.6,30.13,South,178,0.0,15.0,84,0.00,,---,0.00,VWS V14.01,2013-10-14 16:26:00,
2013-10-14 12:30:00,70.9,65.8,30.13,South,172,3.0,15.0,84,0.00,,---,0.00,VWS V14.01,2013-10-14 16:30:00,
2013-10-14 12:31:00,71.1,65.7,30.13,SSW,200,3.0,9.0,83,0.00,,---,0.00,VWS V14.01,2013-10-14 16:31:00,
2013-10-14 12:36:00,71.1,65.7,30.12,South,188,3.0,15.0,83,0.00,,---,0.00,VWS V14.01,2013-10-14 16:36:00,
2013-10-14 12:41:00,71.2,65.8,30.12,SE,141,2.0,15.0,83,0.00,,---,0.00,VWS V14.01,2013-10-14 16:41:00,
2013-10-14 12:46:00,71.4,65.6,30.12,South,178,4.0,15.0,82,0.00,,---,0.00,VWS V14.01,2013-10-14 16:46:00,
2013-10-14 12:51:00,71.5,65.7,30.12,SW,217,8.0,15.0,82,0.00,,---,0.00,VWS V14.01,2013-10-14 16:51:00,
2013-10-14 12:56:00,72.0,65.9,30.11,SE,141,0.0,15.0,81,0.00,,---,0.00,VWS V14.01,2013-10-14 16:56:00,
2013-10-14 13:00:00,72.0,65.9,30.11,SSE,167,3.0,15.0,81,0.00,,---,0.00,VWS V14.01,2013-10-14 17:00:00,
2013-10-14 13:01:00,71.9,65.8,30.11,SE,130,0.0,8.0,81,0.00,,---,0.00,VWS V14.01,2013-10-14 17:01:00,
2013-10-14 13:06:00,71.7,65.6,30.11,SSE,166,3.0,14.0,81,0.00,,---,0.00,VWS V14.01,2013-10-14 17:06:00,
2013-10-14 13:11:00,71.6,65.5,30.11,SE,129,3.0,14.0,81,0.00,,---,0.00,VWS V14.01,2013-10-14 17:11:00,
2013-10-14 13:16:00,71.6,65.5,30.11,SSE,148,12.0,14.0,81,0.00,,---,0.00,VWS V14.01,2013-10-14 17:16:00,
2013-10-14 13:21:00,71.4,65.3,30.11,SSE,155,4.0,14.0,81,0.00,,---,0.00,VWS V14.01,2013-10-14 17:21:00,
2013-10-14 13:26:00,71.7,65.9,30.11,SSE,160,2.0,14.0,82,0.00,,---,0.00,VWS V14.01,2013-10-14 17:26:00,
2013-10-14 13:30:00,71.9,65.8,30.11,SSE,157,2.0,14.0,81,0.00,,---,0.00,VWS V14.01,2013-10-14 17:30:00,
2013-10-14 13:31:00,72.1,65.9,30.10,South,178,5.0,8.0,81,0.00,,---,0.00,VWS V14.01,2013-10-14 17:31:00,
2013-10-14 13:36:00,72.3,65.8,30.10,South,178,7.0,8.0,80,0.00,,---,0.00,VWS V14.01,2013-10-14 17:36:00,
2013-10-14 13:41:00,72.2,65.7,30.10,South,188,2.0,9.0,80,0.00,,---,0.00,VWS V14.01,2013-10-14 17:41:00,
2013-10-14 13:46:00,72.4,65.9,30.10,SE,138,7.0,13.0,80,0.00,,---,0.00,VWS V14.01,2013-10-14 17:46:00,
2013-10-14 13:51:00,72.1,65.6,30.10,SE,135,3.0,13.0,80,0.00,,---,0.00,VWS V14.01,2013-10-14 17:51:00,
2013-10-14 13:56:00,72.1,65.6,30.09,SSE,165,0.0,13.0,80,0.00,,---,0.00,VWS V14.01,2013-10-14 17:56:00,
2013-10-14 14:00:00,72.0,65.9,30.09,South,173,6.0,13.0,81,0.00,,---,0.00,VWS V14.01,2013-10-14 18:00:00,
2013-10-14 14:01:00,72.0,65.5,30.09,SSE,166,1.0,12.0,80,0.00,,---,0.00,VWS V14.01,2013-10-14 18:01:00,
2013-10-14 14:06:00,72.0,65.5,30.09,SSE,162,0.0,12.0,80,0.00,,---,0.00,VWS V14.01,2013-10-14 18:06:00,
2013-10-14 14:11:00,72.1,65.6,30.09,South,174,2.0,12.0,80,0.00,,---,0.00,VWS V14.01,2013-10-14 18:11:00,
2013-10-14 14:16:00,72.2,65.3,30.09,South,182,9.0,12.0,79,0.00,,---,0.00,VWS V14.01,2013-10-14 18:16:00,
2013-10-14 14:21:00,71.9,65.4,30.09,SSE,161,4.0,16.0,80,0.00,,---,0.00,VWS V14.01,2013-10-14 18:21:00,
2013-10-14 14:26:00,72.1,65.6,30.09,SSE,165,6.0,16.0,80,0.00,,---,0.00,VWS V14.01,2013-10-14 18:26:00,
2013-10-14 14:30:00,72.1,65.2,30.09,SE,137,5.0,16.0,79,0.00,,---,0.00,VWS V14.01,2013-10-14 18:30:00,
2013-10-14 14:31:00,71.9,65.4,30.09,SSE,153,3.0,10.0,80,0.00,,---,0.00,VWS V14.01,2013-10-14 18:31:00,
2013-10-14 14:36:00,71.9,65.0,30.09,SSE,154,2.0,16.0,79,0.00,,---,0.00,VWS V14.01,2013-10-14 18:36:00,
2013-10-14 14:41:00,72.0,65.1,30.09,SSW,193,6.0,16.0,79,0.00,,---,0.00,VWS V14.01,2013-10-14 18:41:00,
2013-10-14 14:46:00,72.1,65.2,30.09,South,175,0.0,16.0,79,0.00,,---,0.00,VWS V14.01,2013-10-14 18:46:00,
2013-10-14 14:51:00,72.3,65.4,30.09,SSE,153,6.0,16.0,79,0.00,,---,0.00,VWS V14.01,2013-10-14 18:51:00,
2013-10-14 14:56:00,72.3,65.4,30.09,SSE,148,3.0,16.0,79,0.00,,---,0.00,VWS V14.01,2013-10-14 18:56:00,
2013-10-14 15:00:00,72.4,65.5,30.08,South,173,5.0,16.0,79,0.00,,---,0.00,VWS V14.01,2013-10-14 19:00:00,
2013-10-14 15:01:00,72.2,65.3,30.08,SE,145,3.0,14.0,79,0.00,,---,0.00,VWS V14.01,2013-10-14 19:01:00,
2013-10-14 15:06:00,72.2,65.7,30.08,SE,134,0.0,14.0,80,0.00,,---,0.00,VWS V14.01,2013-10-14 19:06:00,
2013-10-14 15:11:00,72.5,65.6,30.08,SE,135,1.0,14.0,79,0.00,,---,0.00,VWS V14.01,2013-10-14 19:11:00,
2013-10-14 15:16:00,72.5,65.6,30.08,SSE,156,7.0,14.0,79,0.00,,---,0.00,VWS V14.01,2013-10-14 19:16:00,
2013-10-14 15:21:00,72.8,65.6,30.08,SE,126,11.0,17.0,78,0.00,,---,0.00,VWS V14.01,2013-10-14 19:21:00,
2013-10-14 15:26:00,72.7,65.4,30.08,South,179,4.0,17.0,78,0.00,,---,0.00,VWS V14.01,2013-10-14 19:26:00,
2013-10-14 15:30:00,72.8,65.6,30.08,SSE,155,1.0,17.0,78,0.00,,---,0.00,VWS V14.01,2013-10-14 19:30:00,
2013-10-14 15:31:00,73.1,65.8,30.08,SSE,165,7.0,8.0,78,0.00,,---,0.00,VWS V14.01,2013-10-14 19:31:00,
2013-10-14 15:37:00,73.1,65.5,30.08,South,179,9.0,11.0,77,0.00,,---,0.00,VWS V14.01,2013-10-14 19:37:00,
2013-10-14 15:42:00,73.2,65.9,30.08,SE,132,0.0,11.0,78,0.00,,---,0.00,VWS V14.01,2013-10-14 19:42:00,
2013-10-14 15:47:00,73.4,66.1,30.08,SE,133,0.0,11.0,78,0.00,,---,0.00,VWS V14.01,2013-10-14 19:47:00,
2013-10-14 15:52:00,73.4,65.8,30.08,SSE,163,15.0,17.0,77,0.00,,---,0.00,VWS V14.01,2013-10-14 19:52:00,
2013-10-14 15:57:00,72.6,65.3,30.08,South,169,3.0,17.0,78,0.00,,---,0.00,VWS V14.01,2013-10-14 19:57:00,
2013-10-14 16:00:00,72.5,65.3,30.08,South,180,11.0,17.0,78,0.00,,---,0.00,VWS V14.01,2013-10-14 20:00:00,
2013-10-14 16:02:00,72.2,65.3,30.08,South,173,8.0,11.0,79,0.00,,---,0.00,VWS V14.01,2013-10-14 20:02:00,
2013-10-14 16:07:00,72.2,65.7,30.08,South,171,0.0,11.0,80,0.00,,---,0.00,VWS V14.01,2013-10-14 20:07:00,
2013-10-14 16:12:00,72.0,65.5,30.08,SE,128,0.0,15.0,80,0.00,,---,0.00,VWS V14.01,2013-10-14 20:12:00,
2013-10-14 16:17:00,71.8,65.3,30.08,East,93,0.0,15.0,80,0.00,,---,0.00,VWS V14.01,2013-10-14 20:17:00,
2013-10-14 16:22:00,72.0,65.9,30.08,SE,138,0.0,15.0,81,0.00,,---,0.00,VWS V14.01,2013-10-14 20:22:00,
2013-10-14 16:27:00,72.0,65.5,30.08,South,184,3.0,15.0,80,0.00,,---,0.00,VWS V14.01,2013-10-14 20:27:00,
2013-10-14 16:30:00,71.9,65.4,30.08,SE,138,3.0,15.0,80,0.00,,---,0.00,VWS V14.01,2013-10-14 20:30:00,
2013-10-14 16:32:00,71.8,65.7,30.09,SSW,195,3.0,11.0,81,0.00,,---,0.00,VWS V14.01,2013-10-14 20:32:00,
2013-10-14 16:37:00,71.6,65.1,30.08,SSE,162,5.0,14.0,80,0.00,,---,0.00,VWS V14.01,2013-10-14 20:37:00,
2013-10-14 16:42:00,71.5,65.4,30.08,SSE,156,3.0,14.0,81,0.00,,---,0.00,VWS V14.01,2013-10-14 20:42:00,
2013-10-14 16:47:00,71.5,65.4,30.08,SE,137,5.0,14.0,81,0.00,,---,0.00,VWS V14.01,2013-10-14 20:47:00,
2013-10-14 16:52:00,71.5,65.7,30.08,ESE,121,3.0,14.0,82,0.00,,---,0.00,VWS V14.01,2013-10-14 20:52:00,
2013-10-14 16:57:00,71.1,65.3,30.08,SSE,150,6.0,14.0,82,0.00,,---,0.00,VWS V14.01,2013-10-14 20:57:00,
2013-10-14 17:00:00,71.0,65.2,30.09,SE,132,2.0,14.0,82,0.00,,---,0.00,VWS V14.01,2013-10-14 21:00:00,
2013-10-14 17:02:00,70.6,65.2,30.09,SE,146,5.0,11.0,83,0.00,,---,0.00,VWS V14.01,2013-10-14 21:02:00,
2013-10-14 17:07:00,70.2,64.8,30.09,SSW,208,3.0,14.0,83,0.00,,---,0.00,VWS V14.01,2013-10-14 21:07:00,
2013-10-14 17:12:00,70.1,65.1,30.09,South,188,12.0,14.0,84,0.00,,---,0.00,VWS V14.01,2013-10-14 21:12:00,
2013-10-14 17:17:00,70.1,65.1,30.09,SSW,194,5.0,14.0,84,0.00,,---,0.00,VWS V14.01,2013-10-14 21:17:00,
2013-10-14 17:22:00,70.1,65.1,30.09,SSE,153,3.0,14.0,84,0.00,,---,0.00,VWS V14.01,2013-10-14 21:22:00,
2013-10-14 17:27:00,70.2,65.1,30.09,SSW,198,5.0,14.0,84,0.00,,---,0.00,VWS V14.01,2013-10-14 21:27:00,
2013-10-14 17:30:00,70.2,65.1,30.09,SE,139,4.0,14.0,84,0.00,,---,0.00,VWS V14.01,2013-10-14 21:30:00,
2013-10-14 17:32:00,70.2,64.8,30.09,South,184,6.0,9.0,83,0.00,,---,0.00,VWS V14.01,2013-10-14 21:32:00,
2013-10-14 17:37:00,70.2,64.8,30.09,SSE,147,0.0,11.0,83,0.00,,---,0.00,VWS V14.01,2013-10-14 21:37:00,
2013-10-14 17:42:00,70.1,65.1,30.10,South,174,0.0,11.0,84,0.00,,---,0.00,VWS V14.01,2013-10-14 21:42:00,
2013-10-14 17:47:00,70.0,64.9,30.10,South,173,5.0,11.0,84,0.00,,---,0.00,VWS V14.01,2013-10-14 21:47:00,
2013-10-14 17:52:00,69.7,64.7,30.10,South,171,1.0,12.0,84,0.00,,---,0.00,VWS V14.01,2013-10-14 21:52:00,
2013-10-14 17:57:00,69.6,64.6,30.10,South,175,4.0,13.0,84,0.00,,---,0.00,VWS V14.01,2013-10-14 21:57:00,
2013-10-14 18:00:00,69.5,64.8,30.10,South,179,3.0,13.0,85,0.00,,---,0.00,VWS V14.01,2013-10-14 22:00:00,
2013-10-14 18:02:00,69.4,64.7,30.10,SSE,163,0.0,9.0,85,0.00,,---,0.00,VWS V14.01,2013-10-14 22:02:00,
2013-10-14 18:08:00,69.3,64.6,30.10,South,181,3.0,9.0,85,0.00,,---,0.00,VWS V14.01,2013-10-14 22:08:00,
2013-10-14 18:13:00,69.1,64.4,30.10,South,176,0.0,9.0,85,0.00,,---,0.00,VWS V14.01,2013-10-14 22:13:00,
2013-10-14 18:18:00,69.0,64.3,30.10,South,174,0.0,10.0,85,0.00,,---,0.00,VWS V14.01,2013-10-14 22:18:00,
2013-10-14 18:23:00,68.8,64.4,30.10,South,187,0.0,10.0,86,0.00,,---,0.00,VWS V14.01,2013-10-14 22:23:00,
2013-10-14 18:28:00,68.5,64.5,30.11,South,170,0.0,10.0,87,0.00,,---,0.00,VWS V14.01,2013-10-14 22:28:00,
2013-10-14 18:30:00,68.5,64.5,30.11,South,175,5.0,10.0,87,0.00,,---,0.00,VWS V14.01,2013-10-14 22:30:00,
2013-10-14 18:33:00,68.3,64.6,30.10,South,170,2.0,5.0,88,0.00,,---,0.00,VWS V14.01,2013-10-14 22:33:00,
2013-10-14 18:38:00,68.0,64.3,30.11,SSE,154,0.0,8.0,88,0.00,,---,0.00,VWS V14.01,2013-10-14 22:38:00,
2013-10-14 18:43:00,67.9,64.2,30.11,SE,139,0.0,9.0,88,0.00,,---,0.00,VWS V14.01,2013-10-14 22:43:00,
2013-10-14 18:48:00,67.8,63.8,30.11,SE,140,1.0,9.0,87,0.00,,---,0.00,VWS V14.01,2013-10-14 22:48:00,
2013-10-14 18:53:00,67.8,63.8,30.11,South,172,5.0,9.0,87,0.00,,---,0.00,VWS V14.01,2013-10-14 22:53:00,
2013-10-14 18:58:00,67.7,63.7,30.11,SSE,156,0.0,9.0,87,0.00,,---,0.00,VWS V14.01,2013-10-14 22:58:00,
2013-10-14 19:00:00,67.8,63.8,30.11,SSE,160,0.0,9.0,87,0.00,,---,0.00,VWS V14.01,2013-10-14 23:00:00,
2013-10-14 19:03:00,67.7,63.7,30.11,SE,142,0.0,6.0,87,0.00,,---,0.00,VWS V14.01,2013-10-14 23:03:00,
2013-10-14 19:08:00,67.7,63.7,30.11,SE,141,0.0,7.0,87,0.00,,---,0.00,VWS V14.01,2013-10-14 23:08:00,
2013-10-14 19:13:00,67.7,63.7,30.11,SSE,150,3.0,7.0,87,0.00,,---,0.00,VWS V14.01,2013-10-14 23:13:00,
2013-10-14 19:18:00,67.6,63.6,30.11,ESE,121,0.0,7.0,87,0.00,,---,0.00,VWS V14.01,2013-10-14 23:18:00,
2013-10-14 19:23:00,67.6,63.6,30.11,South,176,0.0,7.0,87,0.00,,---,0.00,VWS V14.01,2013-10-14 23:23:00,
2013-10-14 19:28:00,67.6,63.6,30.11,SSE,152,3.0,7.0,87,0.00,,---,0.00,VWS V14.01,2013-10-14 23:28:00,
2013-10-14 19:30:00,67.6,63.6,30.11,SSE,154,0.0,7.0,87,0.00,,---,0.00,VWS V14.01,2013-10-14 23:30:00,
2013-10-14 19:33:00,67.6,63.6,30.11,SSE,158,0.0,1.0,87,0.00,,---,0.00,VWS V14.01,2013-10-14 23:33:00,
2013-10-14 19:38:00,67.6,63.6,30.11,SE,142,0.0,5.0,87,0.00,,---,0.00,VWS V14.01,2013-10-14 23:38:00,
2013-10-14 19:43:00,67.6,63.6,30.11,SE,129,2.0,10.0,87,0.00,,---,0.00,VWS V14.01,2013-10-14 23:43:00,
2013-10-14 19:48:00,67.6,63.6,30.11,SE,139,0.0,10.0,87,0.00,,---,0.00,VWS V14.01,2013-10-14 23:48:00,
2013-10-14 19:53:00,67.6,63.6,30.11,South,185,0.0,10.0,87,0.00,,---,0.00,VWS V14.01,2013-10-14 23:53:00,
2013-10-14 19:58:00,67.6,63.6,30.11,SE,146,0.0,10.0,87,0.00,,---,0.00,VWS V14.01,2013-10-14 23:58:00,
2013-10-14 20:00:00,67.6,63.6,30.11,SE,146,0.0,10.0,87,0.00,,---,0.00,VWS V14.01,2013-10-15 00:00:00,
2013-10-14 20:03:00,67.6,63.6,30.11,SSE,160,3.0,8.0,87,0.00,,---,0.00,VWS V14.01,2013-10-15 00:03:00,
2013-10-14 20:08:00,67.6,63.6,30.12,South,186,0.0,12.0,87,0.00,,---,0.00,VWS V14.01,2013-10-15 00:08:00,
2013-10-14 20:13:00,67.6,63.6,30.12,SE,144,0.0,12.0,87,0.00,,---,0.00,VWS V14.01,2013-10-15 00:13:00,
2013-10-14 20:18:00,67.6,63.6,30.12,SSE,157,0.0,12.0,87,0.00,,---,0.00,VWS V14.01,2013-10-15 00:18:00,
2013-10-14 20:23:00,67.6,63.6,30.12,SE,131,0.0,12.0,87,0.00,,---,0.00,VWS V14.01,2013-10-15 00:23:00,
2013-10-14 20:28:00,67.5,63.5,30.12,SSE,153,4.0,12.0,87,0.00,,---,0.00,VWS V14.01,2013-10-15 00:28:00,
2013-10-14 20:30:00,67.5,63.5,30.12,SSE,161,3.0,12.0,87,0.00,,---,0.00,VWS V14.01,2013-10-15 00:30:00,
2013-10-14 20:34:00,67.5,63.5,30.12,SSE,163,5.0,6.0,87,0.00,,---,0.00,VWS V14.01,2013-10-15 00:34:00,
2013-10-14 20:39:00,67.5,63.5,30.12,SSE,158,0.0,9.0,87,0.00,,---,0.00,VWS V14.01,2013-10-15 00:39:00,
2013-10-14 20:44:00,67.5,63.2,30.12,SSE,161,0.0,9.0,86,0.00,,---,0.00,VWS V14.01,2013-10-15 00:44:00,
2013-10-14 20:49:00,67.4,63.1,30.12,South,178,1.0,9.0,86,0.00,,---,0.00,VWS V14.01,2013-10-15 00:49:00,
2013-10-14 20:54:00,67.4,63.4,30.12,South,179,0.0,9.0,87,0.00,,---,0.00,VWS V14.01,2013-10-15 00:54:00,
2013-10-14 20:59:00,67.4,63.4,30.12,SE,146,0.0,9.0,87,0.00,,---,0.00,VWS V14.01,2013-10-15 00:59:00,
2013-10-14 21:00:00,67.4,63.4,30.12,South,185,0.0,9.0,87,0.00,,---,0.00,VWS V14.01,2013-10-15 01:00:00,
2013-10-14 21:04:00,67.3,63.3,30.12,South,183,3.0,7.0,87,0.00,,---,0.00,VWS V14.01,2013-10-15 01:04:00,
2013-10-14 21:09:00,67.3,63.3,30.12,SSE,167,2.0,7.0,87,0.00,,---,0.00,VWS V14.01,2013-10-15 01:09:00,
2013-10-14 21:14:00,67.2,63.2,30.12,SSE,165,0.0,7.0,87,0.00,,---,0.00,VWS V14.01,2013-10-15 01:14:00,
2013-10-14 21:19:00,67.2,63.2,30.12,South,188,0.0,7.0,87,0.00,,---,0.00,VWS V14.01,2013-10-15 01:19:00,
2013-10-14 21:24:00,67.2,63.2,30.12,South,177,6.0,7.0,87,0.00,,---,0.00,VWS V14.01,2013-10-15 01:24:00,
2013-10-14 21:29:00,67.2,62.9,30.13,SE,146,0.0,0.0,86,0.00,,---,0.00,VWS V14.01,2013-10-15 01:29:00,
2013-10-14 21:30:00,67.2,62.9,30.13,SE,146,0.0,9.0,86,0.00,,---,0.00,VWS V14.01,2013-10-15 01:30:00,
2013-10-14 21:34:00,67.1,62.8,30.12,SSE,161,0.0,5.0,86,0.00,,---,0.00,VWS V14.01,2013-10-15 01:34:00,
2013-10-14 21:39:00,67.1,62.8,30.13,South,183,2.0,6.0,86,0.00,,---,0.00,VWS V14.01,2013-10-15 01:39:00,
2013-10-14 21:44:00,67.1,62.8,30.13,SSE,148,0.0,8.0,86,0.00,,---,0.00,VWS V14.01,2013-10-15 01:44:00,
2013-10-14 21:49:00,67.1,62.8,30.13,SSE,166,2.0,9.0,86,0.00,,---,0.00,VWS V14.01,2013-10-15 01:49:00,
2013-10-14 21:54:00,67.1,62.8,30.14,South,181,0.0,9.0,86,0.00,,---,0.00,VWS V14.01,2013-10-15 01:54:00,
2013-10-14 21:59:00,67.0,62.7,30.14,SSE,155,0.0,0.0,86,0.00,,---,0.00,VWS V14.01,2013-10-15 01:59:00,
2013-10-14 22:00:00,67.0,62.7,30.14,SSE,155,0.0,9.0,86,0.00,,---,0.00,VWS V14.01,2013-10-15 02:00:00,
2013-10-14 22:04:00,67.0,62.7,30.14,SSE,150,0.0,8.0,86,0.00,,---,0.00,VWS V14.01,2013-10-15 02:04:00,
2013-10-14 22:09:00,67.0,62.7,30.14,SE,146,0.0,8.0,86,0.00,,---,0.00,VWS V14.01,2013-10-15 02:09:00,
2013-10-14 22:14:00,66.9,62.6,30.14,South,182,0.0,8.0,86,0.00,,---,0.00,VWS V14.01,2013-10-15 02:14:00,
2013-10-14 22:19:00,66.9,62.6,30.14,SE,144,0.0,9.0,86,0.00,,---,0.00,VWS V14.01,2013-10-15 02:19:00,
2013-10-14 22:24:00,66.8,62.5,30.14,SSE,148,0.0,9.0,86,0.00,,---,0.00,VWS V14.01,2013-10-15 02:24:00,
2013-10-14 22:29:00,66.6,62.3,30.14,SE,130,4.0,4.0,86,0.00,,---,0.00,VWS V14.01,2013-10-15 02:29:00,
2013-10-14 22:30:00,66.6,62.3,30.14,SE,128,1.0,10.0,86,0.00,,---,0.00,VWS V14.01,2013-10-15 02:30:00,
2013-10-14 22:34:00,66.5,62.5,30.14,SE,137,4.0,8.0,87,0.00,,---,0.00,VWS V14.01,2013-10-15 02:34:00,
2013-10-14 22:39:00,66.3,62.3,30.14,SSE,153,0.0,9.0,87,0.00,,---,0.00,VWS V14.01,2013-10-15 02:39:00,
2013-10-14 22:44:00,66.2,62.2,30.14,SE,146,2.0,9.0,87,0.00,,---,0.00,VWS V14.01,2013-10-15 02:44:00,
2013-10-14 22:49:00,66.1,62.1,30.14,SSE,163,2.0,9.0,87,0.00,,---,0.00,VWS V14.01,2013-10-15 02:49:00,
2013-10-14 22:54:00,66.0,62.0,30.14,SSE,152,6.0,11.0,87,0.00,,---,0.00,VWS V14.01,2013-10-15 02:54:00,
2013-10-14 22:59:00,66.0,62.0,30.14,SSE,162,0.0,5.0,87,0.00,,---,0.00,VWS V14.01,2013-10-15 02:59:00,
2013-10-14 23:00:00,66.0,62.0,30.14,SSE,160,6.0,14.0,87,0.00,,---,0.00,VWS V14.01,2013-10-15 03:00:00,
2013-10-14 23:04:00,66.0,62.0,30.14,South,186,4.0,7.0,87,0.00,,---,0.00,VWS V14.01,2013-10-15 03:04:00,
2013-10-14 23:09:00,66.0,62.0,30.15,SSE,150,1.0,10.0,87,0.00,,---,0.00,VWS V14.01,2013-10-15 03:09:00,
2013-10-14 23:14:00,66.0,62.0,30.14,SSW,211,6.0,10.0,87,0.00,,---,0.00,VWS V14.01,2013-10-15 03:14:00,
2013-10-14 23:19:00,66.0,62.0,30.15,SSE,167,5.0,10.0,87,0.00,,---,0.00,VWS V14.01,2013-10-15 03:19:00,
2013-10-14 23:24:00,66.0,62.0,30.14,ESE,120,0.0,10.0,87,0.00,,---,0.00,VWS V14.01,2013-10-15 03:24:00,
2013-10-14 23:29:00,65.9,61.6,30.14,South,179,5.0,5.0,86,0.00,,---,0.00,VWS V14.01,2013-10-15 03:29:00,
2013-10-14 23:30:00,65.9,61.6,30.14,SSE,161,0.0,10.0,86,0.00,,---,0.00,VWS V14.01,2013-10-15 03:30:00,
2013-10-14 23:34:00,65.9,61.6,30.14,SE,138,5.0,11.0,86,0.00,,---,0.00,VWS V14.01,2013-10-15 03:34:00,
2013-10-14 23:39:00,65.8,61.8,30.14,SE,138,4.0,11.0,87,0.00,,---,0.00,VWS V14.01,2013-10-15 03:39:00,
2013-10-14 23:44:00,65.8,61.8,30.14,SE,144,7.0,11.0,87,0.00,,---,0.00,VWS V14.01,2013-10-15 03:44:00,
2013-10-14 23:49:00,65.7,61.7,30.14,SE,139,0.0,11.0,87,0.00,,---,0.00,VWS V14.01,2013-10-15 03:49:00,
2013-10-14 23:54:00,65.7,61.7,30.14,South,175,1.0,11.0,87,0.00,,---,0.00,VWS V14.01,2013-10-15 03:54:00,
2013-10-14 23:59:00,65.6,61.6,30.13,SSE,159,0.0,0.0,87,0.00,,---,0.00,VWS V14.01,2013-10-15 03:59:00,